Volver al catálogo

SJ-11-02

ActivoCienciaSSO
NORAD 37765·PAYLOAD·🇨🇳 China

Lanzado Jul 29, 2011 desde Jiuquan Satellite Launch Center

Loading…

Próximos Pases (próximas 24 horas)

TLE

ActualizadoSource: Space-Track

Época: Sep 13, 2026, 17:25 UTC

1 37765U 11039A   26256.72623041  .00000317  00000-0  68935-4 0  9994
2 37765  98.2476 146.9797 0010396 352.7074  75.6017 14.64552597806914

Sigue SJ-11-02 en tiempo real con AllMySat

Download on the App Store